This demonstration page uses our WeatherBlox Daily Observations layout. Learn more.

Left ArrowRight Arrow

Hourly Observations for July 28, 2021

Temp ( °F °C ) Dew Point ( °F °C ) Humidity (%) Winds ( mph kmh ) Pressure ( in mb ) Visibility ( mi km ) Precip ( " mm )
12:56 am 00:56 Clear 76 24.4 71 21.7 85 85 S 7 11 30.01 1016 10 16 0.00 0.00
1:56 am 01:56 Clear 74 23.3 69 20.6 85 85 S 8 13 30.01 1016 10 16 0.00 0.00
2:56 am 02:56 Clear 72 22.2 68 20 87 87 S 7 11 30.00 1016 10 16 0.00 0.00
3:56 am 03:56 Clear 72 22.2 68 20 87 87 SSW 8 13 30.01 1016 10 16 0.00 0.00
4:56 am 04:56 Clear 72 22.2 68 20 87 87 S 7 11 30.01 1016 10 16 0.00 0.00
5:56 am 05:56 Clear 70 21.1 67 19.4 90 90 SSW 6 9 30.02 1017 10 16 0.00 0.00
6:56 am 06:56 Sunny 71 21.7 68 20 90 90 SSW 8 13 30.01 1016 10 16 0.00 0.00
7:56 am 07:56 Sunny 75 23.9 70 21.1 84 84 S 7 11 30.01 1016 10 16 0.00 0.00
8:56 am 08:56 Sunny 79 26.1 71 21.7 77 77 SSW 10 17 30.01 1016 10 16 0.00 0.00
9:56 am 09:56 Sunny 83 28.3 73 22.8 72 72 SSW 15 24 30.00 1016 10 16 0.00 0.00
10:56 am 10:56 Sunny 87 30.6 74 23.3 65 65 SSW 14 22 29.98 1015 10 16 0.00 0.00
11:56 am 11:56 Sunny 90 32.2 74 23.3 59 59 S 15 24 30.00 1016 10 16 0.00 0.00
12:56 pm 12:56 Hazy 91 32.8 75 23.9 59 59 S 15 24 29.99 1016 3 4 0.00 0.00
1:06 pm 13:06 Sunny 91 33 73 23 56 56 S 15 24 29.89 1012 10 16 0.00 0.00
1:56 pm 13:56 Sunny 92 33.3 75 23.9 58 58 S 17 28 29.98 1015 10 16 0.00 0.00
2:56 pm 14:56 Sunny 93 33.9 74 23.3 54 54 S 16 26 29.97 1015 10 16 0.00 0.00
3:56 pm 15:56 Sunny 94 34.4 75 23.9 54 54 S 13 20 29.96 1015 10 16 0.00 0.00
4:56 pm 16:56 Sunny 94 34.4 74 23.3 52 52 SSE 10 17 29.95 1014 10 16 0.00 0.00
5:56 pm 17:56 Sunny 93 33.9 75 23.9 56 56 SSE 9 15 29.95 1014 9 14 0.00 0.00
6:56 pm 18:56 Sunny 92 33.3 77 25 62 62 SE 10 17 29.93 1013 10 16 0.00 0.00
7:56 pm 19:56 Sunny 88 31.1 75 23.9 66 66 SSE 10 17 29.93 1013 10 16 0.00 0.00
8:56 pm 20:56 Clear 82 27.8 73 22.8 74 74 SE 8 13 29.93 1013 10 16 0.00 0.00
9:56 pm 21:56 Clear 79 26.1 73 22.8 82 82 SE 9 15 29.94 1014 8 13 0.00 0.00
10:56 pm 22:56 Clear 79 26.1 72 22.2 79 79 S 10 17 29.95 1014 10 16 0.00 0.00
11:56 pm 23:56 Clear 82 27.8 70 21.1 67 67 S 13 20 29.95 1014 10 16 0.00 0.00

Powered by AerisWeather